Location: Seattle
(47.6064°N, 122.3308°W)
Time: 09:09:18
(UTC-07:00)

ISS - Pass Details

Date: 25 April 2026
Orbit: 414 x 424 km, 51.6° (Epoch: 14 May)

Event Time Altitude Azimuth Distance (km) Brightness Sun altitude
Exits shadow 03:30:15 36° 112° (ESE) 688 -2.6 -21.3°
Drops below altitude 10° 03:32:44 10° 75° (ENE) 1,503 -0.2 -21.0°
Sets 03:34:54 0° 68° (ENE) 2,372 1.1 -20.8°
